FW6193 Weather Reports


time (UTC)temp
C
wind
direction
speed
KPH
gust
KPH
rain 1hr
cm
rain 24hr
cm
rain mn
cm
humidity
%
barometer
mb
20260506222015 19 0 0.0 9.7 0.00 0.38 0.38 82 1007.9
20260506221530 19 0 0.0 9.7 0.00 0.38 0.38 82 1007.9
20260506221007 19 0 0.0 0.0 0.00 0.38 0.38 83 1007.8
20260506220514 18 0 0.0 0.0 0.00 0.38 0.38 83 1007.7
20260506220036 18 0 0.0 0.0 0.00 0.38 0.38 83 1007.8
20260506215511 18 0 0.0 3.2 0.00 0.38 0.38 82 1007.9
20260506215013 18 0 0.0 4.8 0.00 0.38 0.38 82 1007.9
20260506214528 18 0 0.0 4.8 0.00 0.38 0.38 82 1007.7
20260506214016 18 0 0.0 3.2 0.00 0.38 0.38 82 1007.7
20260506213557 18 0 0.0 6.4 0.00 0.38 0.38 83 1007.6
20260506213102 18 0 0.0 6.4 0.00 0.38 0.38 83 1007.5
20260506212512 18 0 0.0 6.4 0.00 0.38 0.38 84 1007.5
20260506212018 18 0 0.0 6.4 0.00 0.38 0.38 82 1007.5
20260506211530 18 0 0.0 6.4 0.00 0.38 0.38 82 1007.6
20260506211012 18 0 0.0 1.6 0.00 0.38 0.38 83 1007.4
20260506210513 18 0 0.0 6.4 0.00 0.38 0.38 85 1007.4
20260506210036 18 0 0.0 6.4 0.00 0.38 0.38 85 1007.3
20260506205511 18 60 0.0 3.2 0.00 0.38 0.38 85 1007.3
20260506205056 18 0 0.0 1.6 0.00 0.38 0.38 85 1007.5
20260506204547 18 0 0.0 1.6 0.00 0.38 0.38 84 1007.4
20260506204017 18 0 0.0 4.8 0.00 0.38 0.38 85 1007.4
20260506203513 18 0 0.0 4.8 0.00 0.38 0.38 86 1007.3
20260506203032 18 0 0.0 4.8 0.00 0.38 0.38 86 1007.3
20260506202513 18 0 0.0 0.0 0.00 0.38 0.38 88 1007.2
20260506202012 17 0 0.0 3.2 0.00 0.38 0.38 86 1007.3
20260506201535 17 0 0.0 3.2 0.00 0.38 0.38 87 1007.2
20260506201014 17 61 0.0 6.4 0.00 0.38 0.38 86 1007.4
20260506200512 17 0 0.0 6.4 0.00 0.38 0.38 86 1007.5
20260506200034 17 0 0.0 4.8 0.00 0.38 0.38 88 1007.4
20260506195513 17 0 0.0 4.8 0.00 0.38 0.38 88 1007.5
20260506195019 17 0 0.0 4.8 0.00 0.38 0.38 88 1007.4
20260506194534 17 0 0.0 4.8 0.00 0.38 0.38 88 1007.5
20260506194013 17 0 0.0 4.8 0.00 0.38 0.38 88 1007.7
20260506193521 17 0 0.0 12.9 0.00 0.38 0.38 89 1007.8
20260506193030 17 0 0.0 12.9 0.00 0.38 0.38 88 1007.8
20260506192516 16 0 0.0 6.4 0.00 0.38 0.38 89 1007.7
20260506192011 16 0 0.0 6.4 0.00 0.38 0.38 90 1007.7
20260506191659 16 0 0.0 6.4 0.00 0.38 0.38 90 1007.8
20260506191541 16 0 0.0 6.4 0.00 0.38 0.38 90 1007.8
20260506191015 16 0 0.0 6.4 0.00 0.38 0.38 90 1007.9
20260506190516 16 0 0.0 6.4 0.00 0.38 0.38 91 1008.1
20260506190030 16 0 0.0 8.0 0.00 0.38 0.38 91 1008.0
20260506185752 16 0 0.0 8.0 0.00 0.38 0.38 90 1008.1
20260506185056 16 0 0.0 8.0 0.00 0.38 0.38 91 1008.1
20260506184013 16 80 0.0 8.0 0.00 0.38 0.38 91 1008.1
20260506183558 15 80 0.0 8.0 0.00 0.38 0.38 91 1008.2
20260506183107 15 0 0.0 6.4 0.00 0.38 0.38 92 1008.3
20260506182604 15 81 1.6 12.9 0.00 0.38 0.38 92 1008.2
20260506182016 15 0 1.6 12.9 0.00 0.38 0.38 92 1008.5
20260506181535 15 0 1.6 9.7 0.00 0.38 0.38 92 1008.3
20260506181019 15 44 1.6 11.3 0.00 0.38 0.38 92 1008.3
20260506180519 15 44 1.6 11.3 0.00 0.38 0.38 92 1008.4
20260506180039 15 56 0.0 9.7 0.00 0.38 0.38 93 1008.5
20260506175512 15 69 1.6 12.9 0.00 0.38 0.38 93 1008.5
20260506175012 15 0 1.6 12.9 0.00 0.38 0.38 92 1008.5
20260506174529 15 51 3.2 14.5 0.00 0.38 0.38 92 1008.5
20260506174017 15 0 1.6 17.7 0.00 0.38 0.38 92 1008.5
20260506173510 15 30 4.8 17.7 0.00 0.38 0.38 93 1008.6
20260506173031 15 0 1.6 14.5 0.00 0.38 0.38 93 1008.6
20260506172510 15 0 0.0 8.0 0.00 0.38 0.38 93 1008.5
20260506172011 15 285 0.0 8.0 0.00 0.38 0.38 93 1008.5
20260506171538 15 267 0.0 8.0 0.00 0.38 0.38 93 1008.5
20260506171015 15 0 1.6 11.3 0.03 0.38 0.38 92 1008.7
20260506170514 15 52 1.6 11.3 0.05 0.38 0.38 92 1008.8
20260506170027 15 0 1.6 11.3 0.05 0.38 0.38 93 1008.7
20260506165511 15 300 1.6 8.0 0.05 0.38 0.38 93 1008.7
20260506165334 15 0 0.0 8.0 0.08 0.38 0.38 93 1008.7
20260506165016 15 0 0.0 8.0 0.08 0.38 0.38 93 1008.7
20260506164824 15 0 1.6 8.0 0.08 0.38 0.38 93 1008.6
20260506164013 15 0 1.6 12.9 0.10 0.38 0.38 93 1008.7
20260506163828 16 0 3.2 14.5 0.15 0.38 0.38 93 1008.5
20260506163036 16 0 0.0 14.5 0.18 0.38 0.38 93 1008.6
20260506162709 15 17 1.6 16.1 0.20 0.38 0.38 93 1008.7
20260506162534 15 17 1.6 16.1 0.20 0.38 0.38 93 1008.7
20260506162015 15 18 1.6 16.1 0.20 0.38 0.38 93 1008.7
20260506161606 15 33 0.0 16.1 0.23 0.38 0.38 93 1008.7
20260506161016 15 0 4.8 16.1 0.23 0.36 0.36 93 1008.9
20260506160624 15 0 1.6 14.5 0.20 0.33 0.33 93 1009.0
20260506160413 15 9 3.2 14.5 0.25 0.33 0.33 93 1009.4
20260506160000 15 0 0.0 6.4 0.25 0.33 0.33 93 1009.6
20260506155254 15 0 0.0 6.4 0.23 0.30 0.30 92 1009.8
20260506154532 15 37 1.6 4.8 0.25 0.30 0.30 92 1009.8
20260506154229 15 34 0.0 12.9 0.23 0.28 0.28 92 1010.1
20260506153512 15 0 0.0 12.9 0.20 0.23 0.23 91 1010.0
20260506153029 15 360 0.0 12.9 0.18 0.20 0.20 91 1010.2
20260506152657 15 46 0.0 4.8 0.15 0.18 0.18 91 1010.2
20260506152515 15 46 0.0 4.8 0.15 0.18 0.18 91 1010.2
20260506152027 15 309 0.0 4.8 0.15 0.18 0.18 90 1009.9
20260506151535 15 5 0.0 3.2 0.13 0.15 0.15 90 1010.0
20260506151020 15 10 0.0 3.2 0.13 0.13 0.13 89 1009.8
20260506150518 15 0 0.0 8.0 0.10 0.10 0.10 89 1009.6
20260506150033 15 0 0.0 14.5 0.08 0.08 0.08 88 1009.8
20260506145510 16 0 3.2 14.5 0.08 0.08 0.08 88 1009.8
20260506145012 16 0 1.6 8.0 0.08 0.08 0.08 88 1009.8
20260506144532 16 28 1.6 8.0 0.05 0.05 0.05 88 1009.8
20260506144018 16 5 0.0 12.9 0.05 0.05 0.05 87 1009.9
20260506143511 16 12 1.6 14.5 0.03 0.03 0.03 87 1009.8
20260506143106 16 0 1.6 14.5 0.03 0.03 0.03 86 1009.6
20260506142512 16 336 0.0 12.9 0.03 0.03 0.03 84 1009.7
20260506142055 16 0 0.0 8.0 0.03 0.03 0.03 83 1009.9
20260506141529 17 0 0.0 9.7 0.03 0.03 0.03 82 1010.0
20260506141016 17 42 0.0 9.7 0.00 0.00 0.00 80 1010.0
20260506140521 17 0 1.6 11.3 0.00 0.00 0.00 79 1009.9
20260506140036 17 73 1.6 11.3 0.00 0.00 0.00 78 1009.8
20260506135512 17 0 0.0 11.3 0.00 0.00 0.00 78 1009.7
20260506135009 17 319 3.2 11.3 0.00 0.00 0.00 77 1009.8
20260506134531 17 0 0.0 6.4 0.00 0.00 0.00 78 1009.7
20260506134014 17 0 0.0 11.3 0.00 0.00 0.00 78 1009.7
20260506133510 17 0 0.0 17.7 0.00 0.00 0.00 78 1009.5
20260506133031 17 57 1.6 17.7 0.00 0.00 0.00 78 1009.7
20260506132516 17 9 4.8 17.7 0.00 0.00 0.00 77 1009.8
20260506132014 17 0 1.6 14.5 0.00 0.00 0.00 77 1009.7
20260506131529 17 57 4.8 14.5 0.00 0.00 0.00 76 1009.7
20260506131011 17 0 3.2 14.5 0.00 0.00 0.00 76 1009.8
20260506130515 17 168 3.2 14.5 0.00 0.00 0.00 77 1009.6
20260506130030 17 0 0.0 14.5 0.00 0.00 0.00 76 1009.9
20260506125521 17 0 1.6 14.5 0.00 0.00 0.00 76 1009.9
20260506125016 17 62 1.6 9.7 0.00 0.00 0.00 76 1010.1
20260506124529 17 0 0.0 14.5 0.00 0.00 0.00 76 1010.2
20260506124010 18 0 1.6 14.5 0.00 0.00 0.00 75 1010.0
20260506123510 18 77 0.0 14.5 0.00 0.00 0.00 76 1009.8
20260506123029 17 342 1.6 17.7 0.00 0.00 0.00 76 1010.0
20260506122515 17 333 3.2 17.7 0.00 0.00 0.00 76 1009.9
20260506122013 17 5 3.2 14.5 0.00 0.00 0.00 76 1009.9
20260506121533 17 74 3.2 11.3 0.00 0.00 0.00 76 1009.8
20260506121015 17 24 1.6 11.3 0.00 0.00 0.00 76 1009.8
20260506120518 17 0 0.0 19.3 0.00 0.00 0.00 77 1009.8
20260506120032 17 12 1.6 19.3 0.00 0.00 0.00 77 1009.6
20260506115511 17 352 3.2 19.3 0.00 0.00 0.00 77 1009.6
20260506115014 17 26 1.6 12.9 0.00 0.00 0.00 77 1009.7
20260506114540 17 0 1.6 9.7 0.00 0.00 0.00 77 1009.7
20260506114012 17 48 1.6 11.3 0.00 0.00 0.00 77 1009.7
20260506113512 17 41 1.6 14.5 0.00 0.00 0.00 77 1009.4
20260506113030 17 67 4.8 17.7 0.00 0.00 0.00 77 1009.5
20260506112522 17 0 1.6 17.7 0.00 0.00 0.00 77 1009.5
20260506112012 17 0 1.6 12.9 0.00 0.00 0.00 78 1009.5
20260506111534 17 17 1.6 14.5 0.00 0.00 0.00 78 1009.4
20260506111055 17 36 3.2 14.5 0.00 0.00 0.00 78 1009.4
20260506111012 17 5 0.0 16.1 0.00 0.00 0.00 78 1009.4
20260506105626 17 5 3.2 16.1 0.00 0.00 0.00 78 1009.3
20260506105010 17 0 0.0 8.0 0.00 0.00 0.00 78 1009.4
20260506104359 17 39 3.2 8.0 0.00 0.00 0.00 78 1009.4
20260506104007 17 0 1.6 11.3 0.00 0.00 0.00 78 1009.3
20260506103407 17 44 3.2 11.3 0.00 0.00 0.00 78 1009.4
20260506103046 17 44 3.2 11.3 0.00 0.00 0.00 78 1009.4
20260506102909 17 22 1.6 11.3 0.00 0.00 0.00 78 1009.2
20260506102509 17 44 0.0 9.7 0.00 0.00 0.00 78 1009.2
20260506101547 17 0 0.0 11.3 0.00 0.00 0.00 78 1009.3
20260506101015 17 45 1.6 11.3 0.00 0.00 0.00 77 1009.2
20260506100513 17 0 0.0 16.1 0.00 0.00 0.00 77 1009.1
20260506100032 17 0 4.8 16.1 0.00 0.00 0.00 77 1009.3
20260506095522 17 46 3.2 12.9 0.00 0.00 0.00 77 1009.4
20260506095011 17 0 3.2 8.0 0.00 0.00 0.00 77 1009.3
20260506094528 17 40 0.0 12.9 0.00 0.00 0.00 77 1009.4
20260506094013 17 0 1.6 12.9 0.00 0.00 0.00 77 1009.4
20260506093514 17 45 1.6 14.5 0.00 0.00 0.00 77 1009.4
20260506093028 17 22 3.2 16.1 0.00 0.00 0.00 76 1009.3
20260506092514 17 0 3.2 16.1 0.00 0.00 0.00 76 1009.4
20260506092014 17 5 1.6 8.0 0.00 0.00 0.00 76 1009.4
20260506091605 17 0 0.0 8.0 0.00 0.00 0.00 76 1009.2
20260506091533 17 0 0.0 8.0 0.00 0.00 0.00 76 1009.2
20260506091014 17 0 1.6 9.7 0.00 0.00 0.00 76 1009.3
20260506090512 17 22 1.6 9.7 0.00 0.00 0.00 76 1009.3
20260506090122 17 18 1.6 9.7 0.00 0.00 0.00 76 1009.3
20260506090043 17 18 1.6 9.7 0.00 0.00 0.00 76 1009.3
20260506085525 17 24 1.6 8.0 0.00 0.00 0.00 76 1009.4
20260506085129 17 30 0.0 6.4 0.00 0.00 0.00 76 1009.4
20260506084530 17 18 0.0 6.4 0.00 0.00 0.00 76 1009.4
20260506084009 17 0 0.0 14.5 0.00 0.00 0.00 76 1009.5
20260506083512 17 39 1.6 14.5 0.00 0.00 0.00 76 1009.5
20260506083108 17 35 3.2 16.1 0.00 0.00 0.00 76 1009.5
20260506082509 17 259 3.2 16.1 0.00 0.00 0.00 76 1009.4
20260506082014 17 13 1.6 12.9 0.00 0.00 0.00 76 1009.4
20260506081655 17 5 3.2 12.9 0.00 0.00 0.00 76 1009.6
20260506081013 17 5 0.0 8.0 0.00 0.00 0.00 76 1009.5
20260506080726 17 5 1.6 8.0 0.00 0.00 0.00 76 1009.6
20260506073024 18 0 0.0 12.9 0.00 0.00 0.00 74 1009.7
20260506072306 18 0 3.2 12.9 0.00 0.00 0.00 74 1009.7
20260506071128 18 344 1.6 12.9 0.00 0.00 0.00 74 1009.7
20260506070924 18 0 0.0 12.9 0.00 0.00 0.00 74 1009.6
20260506062013 18 72 0.0 9.7 0.00 0.00 0.00 72 1010.1
20260506061534 18 35 0.0 9.7 0.00 0.00 0.00 72 1010.1
20260506061016 18 0 1.6 14.5 0.00 0.00 0.00 71 1010.0
20260506060708 18 0 0.0 14.5 0.00 0.00 0.00 71 1010.0
20260506051021 18 0 0.0 8.0 0.00 0.00 0.00 70 1010.4
20260506050521 18 352 0.0 8.0 0.00 0.00 0.00 70 1010.6
20260506050133 18 0 0.0 6.4 0.00 0.00 0.00 70 1010.5
20260506045009 18 16 0.0 9.7 0.00 0.00 0.00 70 1010.5
20260506044551 18 0 0.0 9.7 0.00 0.00 0.00 69 1010.6
20260506044021 18 0 0.0 4.8 0.00 0.00 0.00 69 1010.7
20260506043521 18 0 0.0 3.2 0.00 0.00 0.00 68 1010.6
20260506043028 18 0 0.0 6.4 0.00 0.00 0.00 68 1010.6
20260506042813 18 0 0.0 6.4 0.00 0.00 0.00 67 1010.6
20260506041537 18 0 0.0 9.7 0.00 0.00 0.00 67 1010.5
20260506041311 18 0 1.6 9.7 0.00 0.00 0.00 67 1010.5
20260506040408 18 22 1.6 9.7 0.00 0.00 0.00 66 1010.6
20260506035511 18 345 1.6 9.7 0.00 0.00 0.00 66 1010.6
20260506035100 18 0 0.0 8.0 0.00 0.00 0.00 65 1010.5
20260506034722 18 5 1.6 8.0 0.00 0.00 0.00 65 1010.6
20260506034019 18 18 1.6 8.0 0.00 0.00 0.00 65 1010.5
20260506033514 19 0 0.0 9.7 0.00 0.00 0.00 64 1010.5
20260506033031 19 0 1.6 9.7 0.00 0.00 0.00 64 1010.4
20260506032816 19 351 0.0 16.1 0.00 0.00 0.00 63 1010.3
20260506032010 19 0 1.6 16.1 0.00 0.00 0.00 62 1010.4
20260506031556 20 0 1.6 11.3 0.00 0.00 0.00 62 1010.4
20260506031301 20 5 1.6 11.3 0.00 0.00 0.00 62 1010.3
20260506030513 20 5 1.6 12.9 0.00 0.00 0.00 61 1010.5
20260506030033 20 0 1.6 12.9 0.00 0.00 0.00 60 1010.4
20260506025625 20 0 1.6 12.9 0.00 0.00 0.00 60 1010.3
20260506025015 20 0 0.0 14.5 0.00 0.00 0.00 59 1010.3
20260506024527 20 352 3.2 14.5 0.00 0.00 0.00 59 1010.4
20260506024010 20 0 3.2 14.5 0.00 0.00 0.00 59 1010.5
20260506023616 20 0 1.6 14.5 0.00 0.00 0.00 59 1010.4
20260506023029 20 0 0.0 12.9 0.00 0.00 0.00 58 1010.5
20260506022514 20 40 3.2 12.9 0.00 0.00 0.00 57 1010.5
20260506022056 20 26 0.0 9.7 0.00 0.00 0.00 57 1010.5
20260506021528 20 0 0.0 12.9 0.00 0.00 0.00 57 1010.4
20260506021010 20 18 0.0 16.1 0.00 0.00 0.00 56 1010.3
20260506020513 21 0 0.0 16.1 0.00 0.00 0.00 56 1010.4
20260506020041 21 0 0.0 8.0 0.00 0.00 0.00 55 1010.4
20260506015514 21 5 0.0 8.0 0.00 0.00 0.00 54 1010.3
20260506015056 21 32 0.0 9.7 0.00 0.00 0.00 54 1010.2
20260506014544 21 0 0.0 9.7 0.00 0.00 0.00 54 1010.3
20260506014009 21 346 1.6 12.9 0.00 0.00 0.00 53 1010.2
20260506013513 21 0 3.2 12.9 0.00 0.00 0.00 53 1010.1
20260506013030 21 275 0.0 9.7 0.00 0.00 0.00 52 1010.1
20260506012510 21 0 1.6 12.9 0.00 0.00 0.00 52 1010.1
20260506012012 21 0 1.6 12.9 0.00 0.00 0.00 52 1009.9
20260506011528 22 0 0.0 14.5 0.00 0.00 0.00 51 1009.8
20260506011055 22 0 0.0 14.5 0.00 0.00 0.00 50 1009.8
20260506010513 22 344 0.0 14.5 0.00 0.00 0.00 50 1009.8
20260506010030 22 0 0.0 17.7 0.00 0.00 0.00 50 1009.8
20260506005513 22 343 0.0 17.7 0.00 0.00 0.00 49 1009.7
20260506005015 22 0 1.6 17.7 0.00 0.00 0.00 50 1009.5
20260506004537 22 0 0.0 14.5 0.00 0.00 0.00 49 1009.5
20260506004016 22 57 3.2 14.5 0.00 0.00 0.00 49 1009.7
20260506003514 22 0 3.2 11.3 0.00 0.00 0.00 49 1009.6
20260506003031 22 0 0.0 9.7 0.00 0.00 0.00 48 1009.6
20260506002520 22 15 1.6 9.7 0.00 0.00 0.00 48 1009.5
20260506002013 22 13 0.0 16.1 0.00 0.00 0.00 48 1009.3
20260506001528 23 0 1.6 17.7 0.00 0.00 0.00 47 1009.3
20260506001124 23 0 0.0 17.7 0.00 0.00 0.00 48 1009.3
20260506000514 23 0 0.0 9.7 0.00 0.00 0.00 47 1009.4
20260506000036 23 0 0.0 9.7 0.00 0.00 0.00 46 1009.3
20260505235603 23 0 0.0 9.7 0.00 0.00 0.00 45 1009.2
20260505235031 23 0 0.0 9.7 0.00 0.00 0.00 45 1009.1
20260505234819 23 0 0.0 8.0 0.00 0.00 0.00 44 1009.1
20260505234014 23 0 0.0 12.9 0.00 0.00 0.00 44 1009.0
20260505233648 23 51 0.0 12.9 0.00 0.00 0.00 44 1008.8
20260505233059 23 0 0.0 9.7 0.00 0.00 0.00 44 1008.9
20260505232609 23 0 0.0 9.7 0.00 0.00 0.00 44 1009.0
20260505232106 23 0 0.0 6.4 0.00 0.00 0.00 44 1009.1
20260505231629 24 0 0.0 9.7 0.00 0.00 0.00 44 1009.1
20260505231547 24 0 0.0 9.7 0.00 0.00 0.00 44 1009.1
20260505231011 24 0 0.0 9.7 0.00 0.00 0.00 43 1008.9
20260505230514 24 0 0.0 8.0 0.00 0.00 0.00 44 1008.9
20260505230036 24 0 0.0 16.1 0.00 0.00 0.00 43 1008.9
20260505225511 24 0 1.6 16.1 0.00 0.00 0.00 43 1009.0
20260505225012 24 285 0.0 8.0 0.00 0.00 0.00 43 1008.8
20260505224538 24 83 0.0 16.1 0.00 0.00 0.00 43 1008.8
20260505224014 25 0 0.0 16.1 0.00 0.00 0.00 44 1008.8
20260505223517 25 38 0.0 9.7 0.00 0.00 0.00 43 1008.8
20260505223040 25 0 1.6 11.3 0.00 0.00 0.00 42 1008.8
20260505222515 25 342 1.6 17.7 0.00 0.00 0.00 42 1008.9